User: anonymous   Login
Location: Cincinnati Observatory Center
(39.1389°N, 84.4225°W)
Time: 01:28:04
(UTC-04:00)
Language:

Hubble Space Telescope - Orbit

View from above orbital plane
View from above orbital plane
View from above satellite
View from above satellite

Ground track
Ground track

The orbit data is extracted from the following two-line orbital elements,

1 20580U 90037B   15145.52814133  .00001533  00000-0  87323-4 0  9996
2 20580 028.4706 303.5440 0002926 358.9794 064.0564 15.07404783176386
Epoch (UTC): 25 May 2015 12:40:31
Eccentricity: 0.0002926
inclination: 28.4706°
perigee height: 542 km
apogee height: 546 km
right ascension of ascending node: 303.5440°
argument of perigee: 358.9794°
revolutions per day: 15.07404783
mean anomaly at epoch: 64.0564°
orbit number at epoch: 17638

The dashed part of the orbit path shows where the satellite is in the earth's shadow,  

DLR